Malmstrom AFB, MT

11:04 AM MDT on August 18, 2017 (GMT -0600)
Malmstrom AFB

Weather History for KGFA - January, 2013

Change the Weather History Date:

Tuesday, January 22, 2013

  Actual Average (KGTF) Record (KGTF)
Temperature  
Mean Temperature 32 °F -  
Max Temperature 50 °F 34 °F 62 °F (1981)
Min Temperature 15 °F 16 °F -32 °F (1982)
Degree Days  
Heating Degree Days 32    
Moisture  
Dew Point 12 °F    
Average Humidity 52    
Maximum Humidity 78    
Minimum Humidity 19    
Precipitation  
Precipitation 0.00 in - - ()
Sea Level Pressure  
Sea Level Pressure 30.18 in    
Wind  
Wind Speed 7 mph (WSW)    
Max Wind Speed 15 mph    
Max Gust Speed -    
Visibility 10 miles    
Events      
Averages and records for this station are not official NWS values.
T = Trace of Precipitation, MM = Missing Value Source: NWS Daily Summary

Daily Weather History Graph

Daily Weather History Graph

Search for Another Location

Airport or City:

Trip Planner

Search our weather history database for the weather conditions in past years. The results will help you decide how hot, cold, wet, or windy it might be!

Date:

Astronomy

Jan. 22, 2013 Rise Set
Actual Time 8:01 AM MST 5:11 PM MST
Civil Twilight 7:27 AM MST 5:45 PM MST
Nautical Twilight 6:50 AM MST 6:23 PM MST
Astronomical Twilight 6:13 AM MST 6:59 PM MST
Moon 1:33 PM MST (1/22) 4:29 AM MST (1/22)
Length of Visible Light 10h 17m
Length of Day
9h 09m
Waxing Gibbous, 83% of the Moon is Illuminated
Jan 22
Waxing Gibbous
Jan 26
Full
Feb 3
Last Quarter
Feb 10
New
Feb 17
First Quarter

Hourly Weather History & Observations

Time (MST) Temp. Windchill Dew Point Humidity Pressure Visibility Wind Dir Wind Speed Gust Speed Precip Events Conditions
12:56 AM 16.0 °F 8.8 °F 10.0 °F 77% 30.21 in 10.0 mi SW 4.6 mph - N/A   Clear
1:56 AM 16.0 °F - 9.0 °F 74% 30.21 in 10.0 mi Calm Calm - N/A   Clear
2:56 AM 15.1 °F 9.4 °F 8.1 °F 74% 30.21 in 10.0 mi NE 3.5 mph - N/A   Clear
3:56 AM 15.1 °F - 9.0 °F 77% 30.21 in 10.0 mi Calm Calm - N/A   Clear
4:56 AM 21.0 °F 14.6 °F 9.0 °F 60% 30.19 in 10.0 mi SSW 4.6 mph - N/A   Clear
5:56 AM 23.0 °F 12.4 °F 10.9 °F 60% 30.19 in 10.0 mi SSW 10.4 mph - N/A   Clear
6:56 AM 24.1 °F 14.4 °F 10.9 °F 57% 30.21 in 10.0 mi SW 9.2 mph - N/A   Clear
8:56 AM 30.0 °F 24.1 °F 10.9 °F 45% 30.23 in 10.0 mi SW 5.8 mph - N/A   Clear
9:56 AM 36.0 °F 27.5 °F 14.0 °F 41% 30.19 in 10.0 mi SSW 12.7 mph - N/A   Clear
10:56 AM 44.1 °F 37.1 °F 10.9 °F 26% 30.19 in 10.0 mi SW 15.0 mph - N/A   Clear
11:56 AM 46.9 °F - 10.0 °F 22% 30.19 in 10.0 mi SW 15.0 mph - N/A   Clear
12:56 PM 48.9 °F - 10.0 °F 21% 30.16 in 10.0 mi SSW 12.7 mph - N/A   Clear
1:56 PM 50.0 °F - 10.9 °F 21% 30.14 in 10.0 mi SSW 15.0 mph - N/A   Clear
2:56 PM 48.9 °F - 8.1 °F 19% 30.15 in 10.0 mi SW 13.8 mph - N/A   Clear
3:56 PM 46.0 °F 39.6 °F 9.0 °F 22% 30.14 in 10.0 mi SSW 15.0 mph - N/A   Clear
4:56 PM 42.1 °F 36.6 °F 12.9 °F 31% 30.13 in 10.0 mi SSW 9.2 mph - N/A   Clear
5:56 PM 33.1 °F 28.7 °F 21.0 °F 61% 30.16 in 10.0 mi NNE 4.6 mph - N/A   Clear
6:56 PM 30.0 °F 24.1 °F 19.0 °F 64% 30.17 in 10.0 mi North 5.8 mph - N/A   Clear
7:56 PM 28.9 °F 22.8 °F 17.1 °F 61% 30.17 in 10.0 mi North 5.8 mph - N/A   Clear
8:56 PM 27.0 °F 18.7 °F 17.1 °F 66% 30.18 in 10.0 mi North 8.1 mph - N/A   Clear
9:56 PM 24.1 °F 13.1 °F 16.0 °F 71% 30.19 in 10.0 mi North 11.5 mph - N/A   Clear
10:56 PM 21.9 °F 11.7 °F 15.1 °F 75% 30.19 in 10.0 mi NNE 9.2 mph - N/A   Clear
11:56 PM 19.9 °F 10.1 °F 14.0 °F 78% 30.21 in 10.0 mi North 8.1 mph - N/A   Clear